Regional Weather Roundup
Issued by NWS Charleston, SC

Current Version | Previous Version | Text Only | Print | Product List | Glossary Off
Versions: 1 2 3 4 5 6 7 8 9 10 11 12 13 14 15 16 17 18 19 20 21 22 23 24 25 26 27 28 29 30 31 32 33 34 35 36 37 38 39 40 41 42 43 44 45 46 47 48 49 50

000
ASUS42 KCHS 182312
RWRCHS

REGIONAL WEATHER ROUNDUP
NATIONAL WEATHER SERVICE CHARLESTON SC
700 PM EDT WED OCT 18 2017

NOTE: "FAIR" INDICATES FEW OR NO CLOUDS BELOW 12,000 FEET WITH NO
SIGNIFICANT WEATHER AND/OR OBSTRUCTIONS TO VISIBILITY.

NOT ALL STATIONS ARE QUALITY CONTROLLED. USE DATA WITH CAUTION...
ESPECIALLY DEWPOINT OBSERVATIONS.

SCZ027-030-031-034>040-042>050-190000-
...SOUTHEAST SOUTH CAROLINA...

CITY           SKY/WX    TMP DP  RH WIND       PRES   REMARKS
N CHARLESTON   CLEAR     67  58  72 N7        30.25R
WATERFRONT PRK   N/A     71  61  70 NE9       30.09R
JOHNS ISLAND   FAIR      68  61  77 NE7       30.25R
PINOPOLIS        N/A     70  57  64 NE8       30.17S
MONCKS CORNER  FAIR      64  54  68 CALM      30.26R
SUMMERVILLE    FAIR      64  55  72 CALM      30.26S
BEAUFORT MCAS  CLEAR     68  60  75 NE12      30.24R
BEAUFORT ARPT  FAIR      68  63  83 E5        30.23S
HILTON HEAD IS CLEAR     70  63  78 E8          N/A
WALTERBORO     CLEAR     64  55  72 NE3       30.26S
ALLENDALE      NOT AVBL

...SOUTHERN MIDLANDS AND PEE DEE...

CITY           SKY/WX    TMP DP  RH WIND       PRES   REMARKS
GEORGETOWN     FAIR      64  59  82 NE3       30.27R
KINGSTREE      FAIR      61  55  82 CALM      30.27S
ORANGEBURG     CLEAR     66  44  45 NE3       30.27R
BARNWELL         N/A     66  45  45 CALM      30.27R
AIKEN          FAIR      63  39  42 NE3       30.31R
MANNING        HAZE      61  55  82 MISG      30.27S VSB<1/4
COLUMBIA       CLEAR     68  39  34 NE6       30.27S
SUMTER         CLEAR     62  41  44 NE3       30.26S
FLORENCE       CLEAR     64  48  56 N5        30.28S
MYRTLE BEACH   CLEAR     67  57  70 NE7       30.28R
N MYRTLE BEACH CLEAR     65  58  78 N3        30.27R

$$

GAZ063-065-086>088-099>101-113>116-118-119-134>141-150-190000-
...SOUTHEAST GEORGIA...

CITY           SKY/WX    TMP DP  RH WIND       PRES   REMARKS
SAVANNAH ARPT  PTCLDY    71  60  68 N6        30.23R
HUNTER AAF     CLEAR     69  62  78 E6        30.20R
FORT STEWART   CLEAR     69  59  69 NE3       30.20S
STATESBORO     CLEAR     69  53  56 CALM      30.24S
SYLVANIA       CLEAR     67  56  69 E3        30.25R
CLAXTON        FAIR      71  58  61 CALM      30.23R

...CSRA...CENTRAL AND FAR SOUTHEAST GEORGIA...

CITY           SKY/WX    TMP DP  RH WIND       PRES   REMARKS
THOMSON        CLEAR     64  43  45 E5        30.32R
AUGUSTA-BUSH   CLEAR     63  47  55 CALM      30.26R
AUGUSTA-DANIEL CLEAR     69  39  33 NE6       30.28R
SWAINSBORO     FAIR      64  50  59 MISG      30.25S
VIDALIA        CLEAR     68  54  60 NE5       30.23S
EASTMAN        FAIR      68  26  20 NE3       30.26R
HAZLEHURST     FAIR      72  41  33 NE5       30.21S
ALMA           CLEAR     70  59  68 CALM      30.21R
WAYCROSS       CLEAR     70  57  62 E3        30.20S
JESUP          NOT AVBL
BAXLEY         FAIR      70  55  60 CALM      30.21R
BRUNSWICK      MOCLDY    70  63  78 NE12G17   30.21S
SAINT SIMONS   MOCLDY    72  65  78 NE14G22   30.19R

$$

SCZ027-028-034-036>038-045-046-048>050-GAZ119-141-190000-
...LAKE AND SUPPLEMENTAL COASTAL OBSERVATIONS...

STATION/POSITION TIME  TEMP    WIND        PRES    WAVE   SWELL
                       AIR SEA DIR/SP/G            HT/PER HT/PER/DIR
                 (UTC) (F)     (DEG/KT/KT) (MB)    (FT/S) (FT/S/D)
WINYAH BAY       NOT AVBL
LAKE MURRAY      2220   71      50/  2/  3 1024.4S
ACE BASIN NERRS  2145   74      20/  2     1024.0
FORT PULASKI     2236   71 73   70/ 13/ 19 1023.8S
SAPELO ISLAND    2200   71      50/ 12     1023.0

$$

ANZ835-935-AMZ111-154-330-350-352-354-370-450-454-472-190000-
...C-MAN AND BUOY OBSERVATIONS...

STATION/POSITION TIME  TEMP    WIND        PRES    WAVE   SWELL
                       AIR SEA DIR/SP/G            HT/PER HT/PER/DIR
                 (UTC) (F)     (DEG/KT/KT) (MB)    (FT/S) (FT/S/D)
BUOY 41004       2250   73 80   40/ 19/ 25 1022.5S   8/10   5/100/10
BUOY 41008       2150   72 78   50/ 21/ 25 1021.6    7/ 7   3/120/ 9
FOLLY BEACH CMAN 2200   70      60/ 16/ 18 1024.5R
CAPERS NEARSHORE 2208   69 75   50/ 16/ 21 1023.4S
FRIPP NEARSHORE  2208   72      60/ 16/ 21   N/A


STATION/POSITION TIME  TEMP    WIND        PRES    WAVE   SWELL
                       AIR SEA DIR/SP/G            HT/PER HT/PER/DIR
                 (UTC) (F)     (DEG/KT/KT) (MB)    (FT/S) (FT/S/D)
5E ST. MARYS GA  2230      78                N/A     7/ 6   2/ 90/11
FRYING PAN BUOY  2250   72 77   30/ 19/ 25 1023.7R   7/ 7   3/150/10
BUOY 41025       2250   72 82   30/ 19/ 25 1024.2R   7/ 9   3/110/ 9
CAPE LOOKOUT NC  2200   66      20/ 16/ 19 1024.8R
BUOY 41002       2250   76 80   60/ 21/ 27 1020.1R  10/ 8
BUOY 41010       NOT AVBL
ST AUGUSTINE FL  2300   76 78   20/ 25/ 28 1020.3F


$$




USA.gov is the U.S. government's official web portal to all federal, state and local government web resources and services.